Location: Unspecified
(42.4274°N, 0.0000°E)
Time: 07:10:43
(UTC+00:00)

QB50P2 - Visible Passes

Search period start: 04 April 2026 00:00
Search period end: 14 April 2026 00:00
Orbit: 517 x 531 km, 98.1° (Epoch: 29 March)

Date Brightness Start Highest point End Pass type
(mag) Time Alt. Az. Time Alt. Az. Time Alt. Az.
4 Apr ? 04:46:51 10° NNE 04:50:18 32° E 04:53:43 10° SSE visible
5 Apr ? 04:34:43 10° NE 04:37:47 23° E 04:40:49 10° SSE visible
6 Apr ? 04:22:45 10° NE 04:25:13 16° E 04:27:40 10° SE visible
7 Apr ? 04:11:13 10° ENE 04:12:36 12° E 04:13:59 10° ESE visible
11 Apr ? 04:53:15 10° NNE 04:56:48 36° E 05:00:20 10° SSE visible
12 Apr ? 04:40:55 10° NE 04:44:08 25° E 04:47:20 10° SSE visible
13 Apr ? 04:28:43 10° NE 04:31:25 18° E 04:34:07 10° SE visible
